Location: Dal�� Lhota
(48.7500°N, 14.0167°E)
Time: 18:31:36
(UTC+00:00)

Vanguard 3 - Pass Details

Date: 08 August 2021
Orbit: 510 x 3260 km, 33.3° (Epoch: 20 September)

Event Time Altitude Azimuth Distance (km) Brightness Sun altitude
Rises 18:09:40 0° 260° (W) 5,445 12.5 2.4°
Reaches altitude 10° 18:13:01 10° 254° (WSW) 4,774 12.0 1.9°
Maximum altitude 18:26:22 43° 190° (S) 3,718 10.4 -0.1°
Drops below altitude 10° 18:44:00 10° 128° (SE) 6,190 11.0 -2.7°
Enters shadow 18:47:30 - 124° (SE) 6,838 11.2 -3.3°
Sets 18:49:08 0° 123° (ESE) 7,143 - -3.5°
